Regional Weather Roundup
Issued by NWS

Home | Current Version | Previous Version | Text Only | Print | Product List | Glossary On
Versions: 1 2 3 4 5 6 7 8 9 10 11 12 13 14 15 16 17 18 19 20 21 22 23 24 25 26 27 28 29 30 31 32 33 34 35 36 37 38 39 40 41 42 43 44 45 46 47 48 49 50
000
ASUS45 KPSR 180210
RWRAZ

ARIZONA REGIONAL HOURLY WEATHER ROUNDUP
NATIONAL WEATHER SERVICE PHOENIX AZ
700 PM MST WED SEP 17 2014

NOTE: FAIR INDICATES FEW OR NO CLOUDS BELOW 12,000 FEET WITH NO
SIGNIFICANT WEATHER AND/OR OBSTRUCTIONS TO VISIBILITY.

AZZ001>003-036-180300-
NORTHWEST ARIZONA

CITY           SKY/WX    TMP DP  RH WIND       PRES   REMARKS
BULLHEAD CITY  CLEAR     95  63  34 SW8       29.69S
KINGMAN        CLEAR     81  59  47 CALM      29.90R
$$

AZZ004>008-015-016-018-180300-
NORTH CENTRAL ARIZONA

CITY           SKY/WX    TMP DP  RH WIND       PRES   REMARKS
GRAND CANYON   CLEAR     66  47  50 E3        30.14S
PRESCOTT       PTCLDY    68  59  73 S5        30.03S
FLAGSTAFF      PTCLDY    60  55  83 CALM      30.17S
PAYSON         MOCLDY    66  61  82 CALM      30.05S
PAGE           PTCLDY    78  55  44 SW3       29.96R
$$

AZZ009>014-017-180300-
NORTHEAST ARIZONA

CITY           SKY/WX    TMP DP  RH WIND       PRES   REMARKS
WINSLOW        PTCLDY    68  60  75 SW7       30.03R
SAINT JOHNS    CLOUDY    67  57  70 SE5       30.08R
WINDOW ROCK    MOCLDY    68  45  43 SE3       30.17
SHOW LOW       CLOUDY    61  57  88 CALM      30.14R
$$

AZZ023-180300-
GREATER PHOENIX AREA

CITY           SKY/WX    TMP DP  RH WIND       PRES   REMARKS
PHOENIX        MOCLDY    85  67  54 NE7       29.73S
BUCKEYE          N/A     81  72  74 NE5       29.75S
GLENDALE       PTCLDY    84  70  61 NE5       29.76R
LUKE AFB       PTCLDY    86  68  55 E6        29.74S
DEER VALLEY    PTCLDY    85  64  49 CALM      29.76S
SCOTTSDALE     MOCLDY    85  65  51 CALM      29.78S
MESA-GATEWAY   MOCLDY    82  70  65 NE7       29.78R
CHANDLER       MOCLDY    82  70  65 N7        29.75
$$

AZZ027-028-180300-
SOUTHWEST MARICOPA COUNTY AND PINAL COUNTY

CITY           SKY/WX    TMP DP  RH WIND       PRES   REMARKS
CASA GRANDE    MOCLDY    82  63  51 NE17      29.76S
GILA BEND      PTCLDY    88  64  45 E5        29.73
$$

AZZ503-504-507>509-180300-
SOUTHEAST ARIZONA

CITY           SKY/WX    TMP DP  RH WIND       PRES   REMARKS
TUCSON         MOCLDY    77  63  61 SE17      29.83R
DAVIS-MONTHAN  MOCLDY    76  64  65 SE10      29.81S
NOGALES        HVY RAIN  66  64  93 CALM      29.87R FOG
SIERRA VISTA   HVY RAIN  64  64 100 SE10      29.95S FOG
DOUGLAS        HVY RAIN  65  63  93 E10       29.94F FOG
SAFFORD        CLOUDY    71  63  75 E15       29.92S
$$

AZZ020-021-025-026-031-180300-
SOUTHWEST ARIZONA

CITY           SKY/WX    TMP DP  RH WIND       PRES   REMARKS
YUMA           PTCLDY    98  62  30 E12       29.65R
$$

CAZ031-033-041-043-047-048-061-180300-
SOUTHERN CALIFORNIA

CITY           SKY/WX    TMP DP  RH WIND       PRES   REMARKS
DOWNTOWN L.A.  CLEAR     84  56  38 VRB5      29.69S
L.A. AIRPORT   PTCLDY    78  58  49 W21G30    29.71R
SAN DIEGO      PTCLDY    77  68  73 NW5       29.76R
BURBANK        CLEAR     89  47  23 W8        29.73R
ONTARIO        PTCLDY    88  50  27 SW12      29.73R
RIVERSIDE      CLEAR     87  50  27 W10G17    29.73R
PALM SPRINGS   PTCLDY    97  63  32 E8        29.67R
EL CENTRO NAS  PTCLDY    97  64  33 SE5       29.63S
IMPERIAL       CLEAR     98  64  32 CALM      29.62S HX 100
BLYTHE         CLEAR     95  64  35 E6        29.66S
NEEDLES        CLEAR     95  62  33 SE5       29.70S
$$

NVZ020-UTZ003-180300-
SOUTHERN NEVADA-UTAH

CITY           SKY/WX    TMP DP  RH WIND       PRES   REMARKS
LAS VEGAS      PTCLDY    94  54  25 S10       29.73R
SALT LAKE CITY PTCLDY    83  44  25 N7        29.86S
$$

NMZ009-TXZ055-180300-
NEW MEXICO-WEST TEXAS

CITY           SKY/WX    TMP DP  RH WIND       PRES   REMARKS
ALBUQUERQUE    CLOUDY    67  59  75 CALM      30.10R
EL PASO        TSTM      77  66  68 N16       29.93S
$$


........................KEY........................
SKY/WX - SKY CONDITION/WEATHER
TMP    - TEMPERATURE IN FAHRENHEIT
DP     - DEW POINT IN FAHRENHEIT
RH     - RELATIVE HUMIDITY IN PERCENT
WIND   - DIRECTION AND SPEED IN MILES PER HOUR (MPH)
VRB    - VARIABLE WIND DIRECTION
PRES   - MEAN SEA LEVEL PRESSURE IN INCHES OF MERCURY
         F - FALLING PRESSURE   R - RISING PRESSURE
         S - STEADY PRESSURE
VSB    - VISIBILITY IN MILES
HX     - HEAT INDEX IN FAHRENHEIT
WCI    - WIND CHILL INDEX IN FAHRENHEIT
TC     - TEMPERATURE IN CELSIUS WHICH IS ALSO KNOWN AS
         TEMPERATURE IN CENTIGRADE
AFB    - AIR FORCE BASE
         LUKE AFB IS LUKE AIR FORCE BASE
         DAVIS-MONTHAN IS DAVIS-MONTHAN AIR FORCE BASE
NAS    - NAVAL AIR STATION
         EL CENTRO NAS IS EL CENTRO NAVAL AIR STATION
N/A    - NOT AVAILABLE



USA.gov is the U.S. government's official web portal to all federal, state and local government web resources and services.